Weather History for Jamestown, ND

Change the Weather History Date:

Saturday, May 11, 2013

  Actual Average Record
Temperature  
Mean Temperature 41 °F 54 °F  
Max Temperature 53 °F 67 °F 92 °F (1900)
Min Temperature 29 °F 41 °F 17 °F (1946)
Degree Days  
Heating Degree Days 24 12  
Month to date heating degree days 206 150  
Since 1 July heating degree days 9512 8744  
Cooling Degree Days 0 0  
Month to date cooling degree days 0 0  
Year to date cooling degree days 0 2  
Moisture  
Dew Point 21 °F    
Average Humidity 51    
Maximum Humidity 82    
Minimum Humidity 19    
Precipitation  
Precipitation 0.00 in 0.08 in 0.89 in (1953)
Month to date precipitation 0.00 0.84  
Year to date precipitation 1.19 3.73  
Sea Level Pressure  
Sea Level Pressure 30.31 in    
Wind  
Wind Speed 14 mph (NNW)    
Max Wind Speed 29 mph    
Max Gust Speed 36 mph    
Visibility 10 miles    
Events      
T = Trace of Precipitation, MM = Missing Value Source: NWS Daily Summary

Daily Weather History Graph

Daily Weather History Graph

Search for Another Location

Airport:

Trip Planner

Search our weather history database for the weather conditions in past years. The results will help you decide how hot, cold, wet, or windy it might be!

Date:

Astronomy

May. 11, 2013 Rise Set
Actual Time 6:04 AM CDT 8:58 PM CDT
Civil Twilight 5:28 AM CDT 9:34 PM CDT
Nautical Twilight 4:43 AM CDT 10:19 PM CDT
Astronomical Twilight 3:49 AM CDT 11:14 PM CDT
Moon 7:11 AM CDT (5/11) 10:42 PM CDT (5/11)
Length of Visible Light 16h 05m
Length of Day
14h 54m
Waxing Crescent, 3% of the Moon is Illuminated
May 11
Waxing Crescent
May 17
First Quarter
May 24
Full
May 31
Last Quarter
Jun 8
New

Hourly Weather History & Observations

Time (CDT) Temp. Windchill Dew Point Humidity Pressure Visibility Wind Dir Wind Speed Gust Speed Precip Events Conditions
12:56 AM 37.9 °F 32.7 °F 28.9 °F 70% 30.19 in 10.0 mi West 6.9 mph - N/A   Clear
1:56 AM 37.9 °F 29.6 °F 28.9 °F 70% 30.24 in 10.0 mi North 13.8 mph - N/A   Overcast
2:56 AM 37.9 °F 30.0 °F 30.9 °F 76% 30.25 in 10.0 mi NNW 12.7 mph - N/A   Mostly Cloudy
3:56 AM 36.0 °F 26.7 °F 30.0 °F 79% 30.27 in 10.0 mi NNW 15.0 mph - N/A   Clear
4:56 AM 35.1 °F 25.5 °F 30.0 °F 82% 30.30 in 10.0 mi NNW 15.0 mph - N/A   Clear
5:56 AM 34.0 °F 24.2 °F 28.9 °F 82% 30.32 in 10.0 mi NNW 15.0 mph - N/A   Clear
6:56 AM 34.0 °F 23.8 °F 28.9 °F 82% 30.34 in 10.0 mi NNW 16.1 mph - N/A   Clear
7:56 AM 37.0 °F 26.4 °F 28.0 °F 70% 30.36 in 10.0 mi NNW 20.7 mph 27.6 mph N/A   Clear
8:56 AM 39.9 °F 30.0 °F 25.0 °F 55% 30.37 in 10.0 mi North 21.9 mph 31.1 mph N/A   Clear
9:30 AM 42.8 °F 33.5 °F 21.2 °F 42% 30.34 in 6.0 mi NNW 23.0 mph 31.1 mph N/A   Haze
9:56 AM 43.0 °F 34.2 °F 21.0 °F 42% 30.38 in 9.0 mi NNW 20.7 mph 31.1 mph N/A   Partly Cloudy
10:56 AM 44.1 °F 35.7 °F 17.1 °F 34% 30.38 in 10.0 mi North 20.7 mph 34.5 mph N/A   Clear
11:56 AM 46.0 °F 38.3 °F 14.0 °F 28% 30.38 in 10.0 mi North 20.7 mph 32.2 mph N/A   Clear
12:56 PM 48.9 °F - 14.0 °F 25% 30.37 in 10.0 mi NNW 21.9 mph 34.5 mph N/A   Clear
1:56 PM 48.9 °F - 14.0 °F 25% 30.36 in 10.0 mi NNW 20.7 mph 31.1 mph N/A   Clear
2:56 PM 51.1 °F - 10.0 °F 19% 30.35 in 10.0 mi NNW 21.9 mph 28.8 mph N/A   Clear
3:56 PM 52.0 °F - 14.0 °F 22% 30.33 in 10.0 mi NNW 17.3 mph 24.2 mph N/A   Clear
4:56 PM 51.1 °F - 16.0 °F 25% 30.32 in 10.0 mi NW 16.1 mph 24.2 mph N/A   Clear
5:56 PM 51.1 °F - 16.0 °F 25% 30.30 in 10.0 mi NNW 12.7 mph 24.2 mph N/A   Clear
6:56 PM 52.0 °F - 16.0 °F 24% 30.29 in 10.0 mi North 15.0 mph 23.0 mph N/A   Clear
7:56 PM 50.0 °F - 15.1 °F 25% 30.28 in 10.0 mi North 13.8 mph - N/A   Clear
8:56 PM 44.1 °F 40.8 °F 17.1 °F 34% 30.27 in 8.0 mi NNE 5.8 mph - N/A   Clear
9:56 PM 37.9 °F 35.5 °F 18.0 °F 45% 30.28 in 10.0 mi NE 3.5 mph - N/A   Clear
10:56 PM 39.0 °F - 19.9 °F 46% 30.28 in 10.0 mi Calm Calm - N/A   Clear
11:56 PM 35.1 °F - 19.0 °F 52% 30.29 in 10.0 mi Calm Calm - N/A   Clear